STARLINK-1413, 45689

Orbit data source: Space-Track

STARLINK-1413, 45689 is a payload satellite owned by SpaceX/Seattle (US) in LEO that was launched on Thu, 04 Jun 2020 UTC via an FALCON 9 launch vehicle from the Air Force Eastern Test Range (AFETR). Payloads include a variety of satellites, spacecraft, and rockets equipped with specific instruments for various scientific and technological missions. These include communications satellites like Starlink; space stations such as the ISS; scientific satellites like the Hubble; Earth observation satellites from companies like Planet Labs, Umbra, and HawkEye 360; GPS; miniature CubeSats for education and research; and military/defense satellites.

Loading next visibility...
STARLINK-1413 details
Identifier
45689, 2020-035AJ
Orbit
LEO
Last TLE update1 day ago
Origin
Flag of USSpaceX/Seattle (US)
ManufacturerSpaceX/Seattle
MissionOperational Commercial Communications
Bus & MotorSTARLINK, Unknown motor
Mass260 kg wet, ~248 kg dry
Launch date (UTC)
2020-06-04 (5 years ago)
Launch vehicle
FALCON 9
Launch site
Air Force Eastern Test Range (AFETR)
Object type
Payload
Rocket body
Debris
Shape & HBRBox + 1 Pan, 8.86 m
Radar Cross Section13.562 m², Large (>1 m²)

Expand to show TLE details & history

TLE from 1 day ago
0 STARLINK-1413
1 45689U 20035AJ  25023.46452110  .00019942  00000-0  13546-2 0  9993
2 45689  53.0538  98.1920 0001456  90.0864 270.0292 15.06379791256957
Epoch: 2025-01-23T11:08Z
Definitive object data (Epoch: 2025-01-23T11:08:54.623Z)
Latitude0.00002°
Longitude167.92275°
Altitude548.152 km
Speed7.589 km/s
True Right ascension06h 32m 46s
True Declination0° 00' 00"
Sunlit
Object was in full shadow at TLE epoch
Visualization TLE readout
Latitude-20.54904°
Longitude146.89427°
Altitude553.352 km
Speed7.585 km/s
Apparent Right ascension03h 42m 42s
Apparent Declination-32° 09' 12"
Sunlit
Object is in full shadow
Visualization observer readout
Local Sidereal Time13:46:31
Azimuth279.223° WNW
Elevation-65.391°
Doppler factor1
Orbital elements
Apogee altitude548.553 km
Perigee altitude546.536 km
Semi-major axis6,925.681 km
Eccentricity0.0001456
Inclination53.0538°
RAAN98.192°
Arg. of periapsis90.0864°
True anomaly270.01252°
Mean anomaly270.0292°
Eccentric anomaly270.02086°
Mean motion3.76573 °/min
BSTAR0.0013546
Orbital period95.6 mins
Loading maneuver chart data...

STARLINK-1413 Visibility forecast

Observer location: undefined°, undefined

Span
Click to sort rows by Start time (UTC) header in descending order
Start Az.
Max El. time (UTC)
Max El. Az.
Max El.
End time (UTC)
End Az.
6 mins2025-01-24 13:04:39.507Z328.324° NNW2025-01-24 13:07:39.507Z18.256° NNE24.962°2025-01-24 13:10:39.507Z79.845° E
5 mins2025-01-24 14:45:39.507Z289.633° WNW2025-01-24 14:47:39.507Z226.002° WSW38.33°2025-01-24 14:50:39.507Z152.579° SSE
5 mins2025-01-25 06:18:39.507Z173.318° S2025-01-25 06:20:39.507Z127.069° SE25.63°2025-01-25 06:23:39.507Z73.719° E
6 mins2025-01-25 07:57:39.507Z267.481° W2025-01-25 07:59:39.507Z316.321° NNW33.323°2025-01-25 08:03:39.507Z38.616° NE
|